TimeEST,TemperatureF,Dew PointF,Humidity,Sea Level PressureIn,VisibilityMPH,Wind Direction,Wind SpeedMPH,Gust SpeedMPH,PrecipitationIn,Events,Conditions,WindDirDegrees,DateUTC
12:54 AM,41.0,36.0,82,29.92,10.0,NW,6.9,-,N/A,,Clear,320,2012-11-08 05:54:00
2:54 AM,39.0,34.0,82,29.94,10.0,NW,6.9,-,N/A,,Clear,320,2012-11-08 07:54:00
3:54 AM,37.0,34.0,89,29.95,10.0,NW,4.6,-,N/A,,Partly Cloudy,320,2012-11-08 08:54:00
4:54 AM,37.0,34.0,89,29.96,10.0,WNW,4.6,-,N/A,,Partly Cloudy,300,2012-11-08 09:54:00
5:54 AM,36.0,33.1,89,29.97,10.0,WNW,3.5,-,N/A,,Partly Cloudy,300,2012-11-08 10:54:00
6:54 AM,37.0,33.1,86,29.99,10.0,WNW,4.6,-,N/A,,Clear,300,2012-11-08 11:54:00
7:54 AM,39.9,34.0,79,30.02,10.0,WNW,4.6,-,N/A,,Clear,290,2012-11-08 12:54:00
8:54 AM,43.0,34.0,71,30.03,10.0,WNW,4.6,-,N/A,,Partly Cloudy,300,2012-11-08 13:54:00
9:54 AM,48.9,33.1,54,30.04,10.0,NW,9.2,18.4,N/A,,Partly Cloudy,310,2012-11-08 14:54:00
10:54 AM,51.1,30.9,46,30.03,10.0,NW,11.5,16.1,N/A,,Clear,310,2012-11-08 15:54:00
11:54 AM,55.0,28.9,37,30.01,10.0,NW,9.2,-,N/A,,Clear,320,2012-11-08 16:54:00
12:54 PM,57.0,27.0,32,29.99,10.0,NW,9.2,-,N/A,,Clear,310,2012-11-08 17:54:00
1:54 PM,57.9,26.1,30,29.98,10.0,NW,10.4,17.3,N/A,,Clear,310,2012-11-08 18:54:00
2:54 PM,59.0,25.0,27,29.97,10.0,WNW,9.2,17.3,N/A,,Clear,300,2012-11-08 19:54:00
3:54 PM,57.9,26.1,30,29.99,10.0,WNW,8.1,17.3,N/A,,Clear,300,2012-11-08 20:54:00
4:54 PM,54.0,28.0,37,30.00,10.0,WNW,3.5,-,N/A,,Clear,300,2012-11-08 21:54:00
5:54 PM,46.0,37.0,71,30.03,10.0,Calm,Calm,-,N/A,,Clear,0,2012-11-08 22:54:00
6:54 PM,42.1,37.0,82,30.05,10.0,SW,4.6,-,N/A,,Clear,230,2012-11-08 23:54:00
7:54 PM,45.0,33.1,63,30.05,10.0,Calm,Calm,-,N/A,,Clear,0,2012-11-09 00:54:00
8:54 PM,45.0,30.0,56,30.06,10.0,Calm,Calm,-,N/A,,Clear,0,2012-11-09 01:54:00
9:54 PM,45.0,30.0,56,30.07,10.0,West,4.6,-,N/A,,Clear,270,2012-11-09 02:54:00
10:54 PM,45.0,27.0,49,30.07,10.0,West,6.9,-,N/A,,Clear,270,2012-11-09 03:54:00
11:54 PM,45.0,27.0,49,30.09,10.0,NW,9.2,-,N/A,,Clear,320,2012-11-09 04:54:00